Location: Calgary
(51.0833°N, 114.0833°W)
Time: 21:17:22
(UTC-06:00)

Envisat - Visible Passes

Search period start: 23 September 2017 00:00
Search period end: 03 October 2017 00:00
Orbit: 764 x 766 km, 98.2° (Epoch: 23 September)

Date Brightness Start Highest point End Pass type
(mag) Time Alt. Az. Time Alt. Az. Time Alt. Az.
23 Sep 3.0 21:15:18 10° SSE 21:20:23 83° WSW 21:25:31 10° NNW visible
23 Sep 5.7 22:57:45 10° WSW 23:00:13 13° W 23:02:42 10° NW visible
24 Sep 3.2 20:38:50 10° SE 20:43:44 51° ENE 20:48:40 10° N visible
24 Sep 4.9 22:18:47 10° SSW 22:23:02 26° W 22:27:19 10° NW visible
25 Sep 4.0 20:03:01 10° ESE 20:07:17 28° ENE 20:11:33 10° N visible
25 Sep 3.7 21:41:27 12° S 21:46:04 52° W 21:51:03 10° NNW visible
26 Sep 2.9 21:04:28 11° SSE 21:09:17 82° ENE 21:14:24 10° NNW visible
26 Sep 5.5 22:45:46 10° SW 22:48:57 17° W 22:52:10 10° NW visible
27 Sep 3.4 20:27:56 10° SE 20:32:42 42° ENE 20:37:29 10° N visible
27 Sep 4.6 22:07:42 12° SSW 22:11:50 32° W 22:16:23 10° NNW visible
28 Sep 4.2 19:52:19 10° ESE 19:56:17 24° ENE 20:00:16 10° N visible
28 Sep 3.4 21:30:44 15° S 21:34:55 63° WSW 21:39:59 10° NNW visible
29 Sep 2.9 20:53:45 13° SSE 20:58:12 67° ENE 21:03:16 10° N visible
29 Sep 5.3 22:34:00 10° SW 22:37:43 20° W 22:41:27 10° NW visible
30 Sep 3.6 20:17:05 10° SE 20:21:40 35° ENE 20:26:16 10° N visible
30 Sep 4.2 21:57:00 16° SSW 22:00:39 39° W 22:05:25 10° NNW visible
01 Oct 4.4 19:41:41 10° ESE 19:45:19 20° ENE 19:48:57 10° N visible
01 Oct 3.1 21:20:01 18° S 21:23:48 77° WSW 21:28:54 10° NNW visible
01 Oct 5.7 23:01:38 10° WSW 23:03:41 12° W 23:05:46 10° WNW visible
02 Oct 3.1 20:43:03 15° SE 20:47:08 55° ENE 20:52:06 10° N visible
02 Oct 5.0 22:23:16 14° SW 22:26:29 24° W 22:30:38 10° NW visible
